TimeCST,TemperatureF,Dew PointF,Humidity,Sea Level PressureIn,VisibilityMPH,Wind Direction,Wind SpeedMPH,Gust SpeedMPH,PrecipitationIn,Events,Conditions,WindDirDegrees,DateUTC
12:09 AM,44.6,35.6,71,30.18,10.0,SSE,8.1,-,N/A,,Overcast,160,2012-11-18 06:09:00
12:29 AM,42.8,35.6,76,30.18,10.0,SSE,8.1,-,N/A,,Overcast,160,2012-11-18 06:29:00
12:50 AM,42.8,35.6,76,30.17,10.0,SSE,9.2,-,N/A,,Overcast,150,2012-11-18 06:50:00
1:09 AM,42.8,35.6,76,30.17,10.0,SSE,6.9,-,N/A,,Overcast,150,2012-11-18 07:09:00
1:29 AM,42.8,35.6,76,30.17,10.0,SE,5.8,-,N/A,,Overcast,140,2012-11-18 07:29:00
1:50 AM,42.8,35.6,76,30.17,10.0,SE,6.9,-,N/A,,Overcast,140,2012-11-18 07:50:00
2:09 AM,42.8,35.6,76,30.17,10.0,SE,4.6,-,N/A,,Overcast,140,2012-11-18 08:09:00
2:29 AM,42.8,35.6,76,30.16,10.0,SE,5.8,-,N/A,,Overcast,140,2012-11-18 08:29:00
2:50 AM,42.8,35.6,76,30.16,10.0,SE,4.6,-,N/A,,Overcast,130,2012-11-18 08:50:00
3:09 AM,42.8,35.6,76,30.16,10.0,SE,4.6,-,N/A,,Overcast,130,2012-11-18 09:09:00
3:29 AM,42.8,35.6,76,30.15,10.0,SE,5.8,-,N/A,,Overcast,140,2012-11-18 09:29:00
3:50 AM,42.8,33.8,70,30.15,10.0,SE,5.8,-,N/A,,Overcast,140,2012-11-18 09:50:00
4:09 AM,42.8,33.8,70,30.15,10.0,SE,5.8,-,N/A,,Overcast,140,2012-11-18 10:09:00
4:30 AM,42.8,33.8,70,30.15,10.0,SE,5.8,-,N/A,,Overcast,140,2012-11-18 10:30:00
4:49 AM,42.8,33.8,70,30.15,10.0,SE,4.6,-,N/A,,Overcast,130,2012-11-18 10:49:00
5:09 AM,-9999,-9999,N/A,30.14,10.0,ESE,3.5,-,N/A,,Overcast,120,2012-11-18 11:09:00
5:30 AM,42.8,33.8,70,30.14,10.0,SE,4.6,-,N/A,,Overcast,130,2012-11-18 11:30:00
5:49 AM,42.8,33.8,70,30.14,10.0,SE,4.6,-,N/A,,Overcast,130,2012-11-18 11:49:00
6:09 AM,42.8,33.8,70,30.14,10.0,SE,4.6,-,N/A,,Overcast,130,2012-11-18 12:09:00
6:30 AM,42.8,32.0,66,30.13,10.0,SE,5.8,-,N/A,,Overcast,140,2012-11-18 12:30:00
6:49 AM,42.8,32.0,66,30.13,10.0,SE,6.9,-,N/A,,Overcast,140,2012-11-18 12:49:00
7:09 AM,42.8,32.0,66,30.13,10.0,SE,6.9,-,N/A,,Overcast,140,2012-11-18 13:09:00
7:30 AM,42.8,32.0,66,30.13,10.0,SE,5.8,-,N/A,,Overcast,130,2012-11-18 13:30:00
7:49 AM,42.8,32.0,66,30.13,10.0,SE,4.6,-,N/A,,Overcast,130,2012-11-18 13:49:00
8:10 AM,42.8,32.0,66,30.13,10.0,SE,4.6,-,N/A,,Overcast,130,2012-11-18 14:10:00
8:29 AM,42.8,32.0,66,30.13,10.0,SE,6.9,-,N/A,,Overcast,140,2012-11-18 14:29:00
8:49 AM,42.8,32.0,66,30.13,10.0,SSE,9.2,-,N/A,,Overcast,150,2012-11-18 14:49:00
9:10 AM,42.8,32.0,66,30.12,10.0,SE,12.7,-,N/A,,Overcast,140,2012-11-18 15:10:00
9:29 AM,44.6,32.0,61,30.12,10.0,SSE,11.5,-,N/A,,Overcast,150,2012-11-18 15:29:00
9:49 AM,44.6,32.0,61,30.12,10.0,SSE,9.2,16.1,N/A,,Overcast,150,2012-11-18 15:49:00
10:10 AM,44.6,32.0,61,30.11,10.0,SSE,10.4,-,N/A,,Overcast,150,2012-11-18 16:10:00
10:29 AM,44.6,30.2,57,30.11,10.0,SSE,10.4,18.4,N/A,,Mostly Cloudy,160,2012-11-18 16:29:00
10:49 AM,46.4,30.2,53,30.10,10.0,SE,15.0,18.4,N/A,,Scattered Clouds,140,2012-11-18 16:49:00
11:10 AM,50.0,32.0,50,30.10,10.0,South,11.5,16.1,N/A,,Clear,170,2012-11-18 17:10:00
11:29 AM,50.0,32.0,50,30.08,10.0,SSE,11.5,16.1,N/A,,Clear,160,2012-11-18 17:29:00
11:49 AM,51.8,32.0,47,30.08,10.0,SSE,15.0,-,N/A,,Clear,160,2012-11-18 17:49:00
12:10 PM,51.8,32.0,47,30.07,10.0,SE,10.4,17.3,N/A,,Clear,130,2012-11-18 18:10:00
12:29 PM,51.8,32.0,47,30.06,10.0,South,11.5,-,N/A,,Clear,170,2012-11-18 18:29:00
12:50 PM,51.8,32.0,47,30.06,10.0,SSE,9.2,-,N/A,,Clear,150,2012-11-18 18:50:00
1:09 PM,51.8,32.0,47,30.06,10.0,SSE,10.4,17.3,N/A,,Clear,150,2012-11-18 19:09:00
1:30 PM,51.8,32.0,47,30.05,10.0,SSE,12.7,18.4,N/A,,Clear,160,2012-11-18 19:30:00
1:50 PM,51.8,32.0,47,30.05,10.0,SSE,10.4,-,N/A,,Clear,150,2012-11-18 19:50:00
2:09 PM,51.8,32.0,47,30.05,10.0,SSE,11.5,-,N/A,,Clear,150,2012-11-18 20:09:00
2:30 PM,51.8,32.0,47,30.05,10.0,SSE,8.1,-,N/A,,Clear,150,2012-11-18 20:30:00
2:50 PM,51.8,32.0,47,30.04,10.0,SE,8.1,-,N/A,,Clear,140,2012-11-18 20:50:00
3:09 PM,51.8,32.0,47,30.04,10.0,SSE,9.2,-,N/A,,Clear,150,2012-11-18 21:09:00
3:30 PM,51.8,32.0,47,30.05,10.0,SSE,8.1,-,N/A,,Clear,150,2012-11-18 21:30:00
3:49 PM,50.0,32.0,50,30.05,10.0,SSE,8.1,-,N/A,,Clear,150,2012-11-18 21:49:00
4:09 PM,46.4,30.2,53,30.05,10.0,SE,4.6,-,N/A,,Clear,140,2012-11-18 22:09:00
4:29 PM,44.6,30.2,57,-9999,10.0,SE,5.8,-,N/A,,Clear,130,2012-11-18 22:29:00
4:49 PM,44.6,30.2,57,30.06,10.0,SE,3.5,-,N/A,,Clear,140,2012-11-18 22:49:00
5:10 PM,42.8,30.2,61,30.07,10.0,SSE,3.5,-,N/A,,Clear,150,2012-11-18 23:10:00
5:29 PM,42.8,30.2,61,30.07,10.0,SE,3.5,-,N/A,,Clear,140,2012-11-18 23:29:00
5:49 PM,41.0,30.2,65,30.07,10.0,Calm,Calm,-,N/A,,Clear,0,2012-11-18 23:49:00
6:10 PM,35.6,30.2,81,30.08,10.0,Calm,Calm,-,N/A,,Clear,0,2012-11-19 00:10:00
6:29 PM,35.6,32.0,87,-9999,10.0,Calm,Calm,-,N/A,,Clear,0,2012-11-19 00:29:00
6:49 PM,33.8,28.4,81,30.08,10.0,Calm,Calm,-,N/A,,Clear,0,2012-11-19 00:49:00
7:10 PM,32.0,28.4,87,30.08,10.0,Calm,Calm,-,N/A,,Clear,0,2012-11-19 01:10:00
7:29 PM,32.0,28.4,87,30.08,10.0,Calm,Calm,-,N/A,,Clear,0,2012-11-19 01:29:00
7:50 PM,32.0,30.2,93,30.07,10.0,Calm,Calm,-,N/A,,Clear,0,2012-11-19 01:50:00
8:09 PM,30.2,28.4,93,30.07,10.0,Calm,Calm,-,N/A,,Clear,0,2012-11-19 02:09:00
8:29 PM,32.0,30.2,93,30.07,10.0,Calm,Calm,-,N/A,,Clear,0,2012-11-19 02:29:00
8:50 PM,32.0,30.2,93,30.07,7.0,Calm,Calm,-,N/A,,Clear,0,2012-11-19 02:50:00
9:09 PM,30.2,28.4,93,30.06,7.0,NE,3.5,-,N/A,,Clear,50,2012-11-19 03:09:00
9:29 PM,30.2,28.4,93,30.06,7.0,NE,3.5,-,N/A,,Clear,50,2012-11-19 03:29:00
9:50 PM,28.4,26.6,93,30.06,7.0,Calm,Calm,-,N/A,,Clear,0,2012-11-19 03:50:00
10:09 PM,28.4,26.6,93,30.06,7.0,Calm,Calm,-,N/A,,Clear,0,2012-11-19 04:09:00
10:30 PM,30.2,28.4,93,30.06,5.0,Calm,Calm,-,N/A,,Clear,0,2012-11-19 04:30:00
11:09 PM,28.4,28.4,100,30.05,5.0,Calm,Calm,-,N/A,,Clear,0,2012-11-19 05:09:00
11:30 PM,28.4,26.6,93,30.06,5.0,NE,3.5,-,N/A,,Clear,40,2012-11-19 05:30:00
11:50 PM,28.4,26.6,93,30.06,5.0,Calm,Calm,-,N/A,,Clear,0,2012-11-19 05:50:00